[Date Prev][Date Next][Thread Prev][Thread Next] - [Date Index][Thread Index][Author Index]
2 Line ISS Keps 8-12
- Subject: [sarex] 2 Line ISS Keps 8-12
- From: "Dave Larsen PhD" <doc@xxxxxxxxxxx>
- Date: Sun, 12 Aug 2001 03:38:14 -0700
ISS
1 25544U 98067A 01224.25309917 .00030973 00000-0 40412-3 0 3355
2 25544 51.6362 165.9110 0011469 5.6405 129.7127 15.58339755155831
----
Via the sarex mailing list at AMSAT.ORG courtesy of AMSAT-NA.
To unsubscribe, send "unsubscribe sarex" to Majordomo@amsat.org
AMSAT Home